owner,sensor,date,latitude,longitude,air_temperature,qcFlag 
ADCP,ioos:station:wmo:42887:1,2010-12-01T00:00:00Z,28.1910,-88.4960,16.8,11111222 
ADCP,ioos:station:wmo:42887:1,2010-12-01T00:20:00Z,28.1910,-88.4960,16.5,11111222 
ADCP,ioos:station:wmo:42887:1,2010-12-01T00:40:00Z,28.1910,-88.4960,16.5,11111222 
ADCP,ioos:station:wmo:42887:1,2010-12-01T01:00:00Z,28.1910,-88.4960,16.3,11111222 
ADCP,ioos:station:wmo:42887:1,2010-12-01T01:20:00Z,28.1910,-88.4960,16.6,11111222 
ADCP,ioos:station:wmo:42887:1,2010-12-01T01:40:00Z,28.1910,-88.4960,16.4,11111222 
ADCP,ioos:station:wmo:42887:1,2010-12-01T02:00:00Z,28.1910,-88.4960,16.4,11111222 
ADCP,ioos:station:wmo:42887:1,2010-12-01T02:20:00Z,28.1910,-88.4960,16.7,11111222 
ADCP,ioos:station:wmo:42887:1,2010-12-01T03:00:00Z,28.1910,-88.4960,16.9,11111222 
ADCP,ioos:station:wmo:42887:1,2010-12-01T03:20:00Z,28.1910,-88.4960,16.6,11111222 
ADCP,ioos:station:wmo:42887:1,2010-12-01T03:40:00Z,28.1910,-88.4960,16.1,11111222 
ADCP,ioos:station:wmo:42887:1,2010-12-01T04:00:00Z,28.1910,-88.4960,15.7,11111222 
ADCP,ioos:station:wmo:42887:1,2010-12-01T04:20:00Z,28.1910,-88.4960,15.0,11111222 
ADCP,ioos:station:wmo:42887:1,2010-12-01T04:40:00Z,28.1910,-88.4960,14.5,11111222 
ADCP,ioos:station:wmo:42887:1,2010-12-01T05:00:00Z,28.1910,-88.4960,14.6,11111222 
ADCP,ioos:station:wmo:42887:1,2010-12-01T05:20:00Z,28.1910,-88.4960,14.6,11111222 
ADCP,ioos:station:wmo:42887:1,2010-12-01T05:40:00Z,28.1910,-88.4960,14.4,11111222 
ADCP,ioos:station:wmo:42887:1,2010-12-01T06:00:00Z,28.1910,-88.4960,14.0,11111222 
ADCP,ioos:station:wmo:42887:1,2010-12-01T06:20:00Z,28.1910,-88.4960,14.2,11111222 
ADCP,ioos:station:wmo:42887:1,2010-12-01T06:40:00Z,28.1910,-88.4960,14.6,11111222 
ADCP,ioos:station:wmo:42887:1,2010-12-01T07:00:00Z,28.1910,-88.4960,13.7,11111222 
ADCP,ioos:station:wmo:42887:1,2010-12-01T07:20:00Z,28.1910,-88.4960,13.4,11111222 
ADCP,ioos:station:wmo:42887:1,2010-12-01T07:40:00Z,28.1910,-88.4960,13.4,11111222 
ADCP,ioos:station:wmo:42887:1,2010-12-01T08:00:00Z,28.1910,-88.4960,13.1,11111222 
ADCP,ioos:station:wmo:42887:1,2010-12-01T08:20:00Z,28.1910,-88.4960,13.2,11111222 
ADCP,ioos:station:wmo:42887:1,2010-12-01T08:40:00Z,28.1910,-88.4960,13.1,11111222 
ADCP,ioos:station:wmo:42887:1,2010-12-01T09:00:00Z,28.1910,-88.4960,13.0,11111222 
ADCP,ioos:station:wmo:42887:1,2010-12-01T09:20:00Z,28.1910,-88.4960,13.0,11111222 
ADCP,ioos:station:wmo:42887:1,2010-12-01T09:40:00Z,28.1910,-88.4960,13.1,11111222 
ADCP,ioos:station:wmo:42887:1,2010-12-01T10:00:00Z,28.1910,-88.4960,13.2,11111222 
ADCP,ioos:station:wmo:42887:1,2010-12-01T10:20:00Z,28.1910,-88.4960,13.8,11111222 
ADCP,ioos:station:wmo:42887:1,2010-12-01T10:40:00Z,28.1910,-88.4960,13.4,11111222 
ADCP,ioos:station:wmo:42887:1,2010-12-01T11:00:00Z,28.1910,-88.4960,13.7,11111222 
ADCP,ioos:station:wmo:42887:1,2010-12-01T11:20:00Z,28.1910,-88.4960,13.7,11111222 
ADCP,ioos:station:wmo:42887:1,2010-12-01T11:40:00Z,28.1910,-88.4960,14.2,11111222 
ADCP,ioos:station:wmo:42887:1,2010-12-01T12:00:00Z,28.1910,-88.4960,14.3,11111222 
ADCP,ioos:station:wmo:42887:1,2010-12-01T12:20:00Z,28.1910,-88.4960,15.4,11111222 
ADCP,ioos:station:wmo:42887:1,2010-12-01T12:40:00Z,28.1910,-88.4960,15.1,11111222 
ADCP,ioos:station:wmo:42887:1,2010-12-01T13:00:00Z,28.1910,-88.4960,15.7,11111222 
ADCP,ioos:station:wmo:42887:1,2010-12-01T13:20:00Z,28.1910,-88.4960,16.0,11111222 
ADCP,ioos:station:wmo:42887:1,2010-12-01T13:40:00Z,28.1910,-88.4960,16.0,11111222 
ADCP,ioos:station:wmo:42887:1,2010-12-01T14:00:00Z,28.1910,-88.4960,16.1,11111222 
ADCP,ioos:station:wmo:42887:1,2010-12-01T14:20:00Z,28.1910,-88.4960,16.6,11111222 
ADCP,ioos:station:wmo:42887:1,2010-12-01T14:40:00Z,28.1910,-88.4960,16.3,11111222 
ADCP,ioos:station:wmo:42887:1,2010-12-01T15:00:00Z,28.1910,-88.4960,16.6,11111222 
ADCP,ioos:station:wmo:42887:1,2010-12-01T15:20:00Z,28.1910,-88.4960,16.4,11111222 
ADCP,ioos:station:wmo:42887:1,2010-12-01T15:40:00Z,28.1910,-88.4960,16.7,11111222 
ADCP,ioos:station:wmo:42887:1,2010-12-01T16:00:00Z,28.1910,-88.4960,16.6,11111222 
ADCP,ioos:station:wmo:42887:1,2010-12-01T16:20:00Z,28.1910,-88.4960,16.6,11111222 
ADCP,ioos:station:wmo:42887:1,2010-12-01T16:40:00Z,28.1910,-88.4960,17.2,11111222 
ADCP,ioos:station:wmo:42887:1,2010-12-01T17:00:00Z,28.1910,-88.4960,16.6,11111222 
ADCP,ioos:station:wmo:42887:1,2010-12-01T17:20:00Z,28.1910,-88.4960,17.1,11111222 
ADCP,ioos:station:wmo:42887:1,2010-12-01T17:40:00Z,28.1910,-88.4960,17.0,11111222 
ADCP,ioos:station:wmo:42887:1,2010-12-01T18:00:00Z,28.1910,-88.4960,16.3,11111222 
ADCP,ioos:station:wmo:42887:1,2010-12-01T18:20:00Z,28.1910,-88.4960,17.2,11111222 
ADCP,ioos:station:wmo:42887:1,2010-12-01T18:40:00Z,28.1910,-88.4960,16.9,11111222 
ADCP,ioos:station:wmo:42887:1,2010-12-01T19:00:00Z,28.1910,-88.4960,17.1,11111222 
ADCP,ioos:station:wmo:42887:1,2010-12-01T19:20:00Z,28.1910,-88.4960,16.3,11111222 
ADCP,ioos:station:wmo:42887:1,2010-12-01T19:40:00Z,28.1910,-88.4960,15.9,11111222 
ADCP,ioos:station:wmo:42887:1,2010-12-01T20:00:00Z,28.1910,-88.4960,16.9,11111222 
ADCP,ioos:station:wmo:42887:1,2010-12-01T20:20:00Z,28.1910,-88.4960,16.5,11111222 
ADCP,ioos:station:wmo:42887:1,2010-12-01T20:40:00Z,28.1910,-88.4960,15.9,11111222 
ADCP,ioos:station:wmo:42887:1,2010-12-01T21:00:00Z,28.1910,-88.4960,16.5,11111222 
ADCP,ioos:station:wmo:42887:1,2010-12-01T21:20:00Z,28.1910,-88.4960,16.1,11111222 
ADCP,ioos:station:wmo:42887:1,2010-12-01T21:40:00Z,28.1910,-88.4960,16.1,11111222 
ADCP,ioos:station:wmo:42887:1,2010-12-01T22:00:00Z,28.1910,-88.4960,16.2,11111222 
ADCP,ioos:station:wmo:42887:1,2010-12-01T22:20:00Z,28.1910,-88.4960,16.2,11111222 
ADCP,ioos:station:wmo:42887:1,2010-12-01T22:40:00Z,28.1910,-88.4960,16.3,11111222 
ADCP,ioos:station:wmo:42887:1,2010-12-01T23:20:00Z,28.1910,-88.4960,16.2,11111222 
ADCP,ioos:station:wmo:42887:1,2010-12-01T23:40:00Z,28.1910,-88.4960,16.4,11111222 
ADCP,ioos:station:wmo:42887:1,2010-12-02T00:00:00Z,28.1910,-88.4960,16.5,11111222 
ADCP,ioos:station:wmo:42887:1,2010-12-02T00:20:00Z,28.1910,-88.4960,16.6,11111222 
ADCP,ioos:station:wmo:42887:1,2010-12-02T00:40:00Z,28.1910,-88.4960,16.4,11111222 
ADCP,ioos:station:wmo:42887:1,2010-12-02T01:00:00Z,28.1910,-88.4960,16.5,11111222 
ADCP,ioos:station:wmo:42887:1,2010-12-02T01:20:00Z,28.1910,-88.4960,16.3,11111222 
ADCP,ioos:station:wmo:42887:1,2010-12-02T01:40:00Z,28.1910,-88.4960,16.1,11111222 
ADCP,ioos:station:wmo:42887:1,2010-12-02T02:00:00Z,28.1910,-88.4960,16.4,11111222 
ADCP,ioos:station:wmo:42887:1,2010-12-02T02:20:00Z,28.1910,-88.4960,16.7,11111222 
ADCP,ioos:station:wmo:42887:1,2010-12-02T02:40:00Z,28.1910,-88.4960,16.2,11111222 
ADCP,ioos:station:wmo:42887:1,2010-12-02T03:00:00Z,28.1910,-88.4960,16.2,11111222 
ADCP,ioos:station:wmo:42887:1,2010-12-02T03:20:00Z,28.1910,-88.4960,16.4,11111222 
ADCP,ioos:station:wmo:42887:1,2010-12-02T03:40:00Z,28.1910,-88.4960,16.5,11111222 
ADCP,ioos:station:wmo:42887:1,2010-12-02T04:00:00Z,28.1910,-88.4960,16.3,11111222 
ADCP,ioos:station:wmo:42887:1,2010-12-02T04:20:00Z,28.1910,-88.4960,16.2,11111222 
ADCP,ioos:station:wmo:42887:1,2010-12-02T04:40:00Z,28.1910,-88.4960,16.6,11111222 
ADCP,ioos:station:wmo:42887:1,2010-12-02T05:00:00Z,28.1910,-88.4960,16.6,11111222 
ADCP,ioos:station:wmo:42887:1,2010-12-02T05:20:00Z,28.1910,-88.4960,16.4,11111222 
ADCP,ioos:station:wmo:42887:1,2010-12-02T05:40:00Z,28.1910,-88.4960,16.5,11111222 
ADCP,ioos:station:wmo:42887:1,2010-12-02T06:00:00Z,28.1910,-88.4960,16.5,11111222 
ADCP,ioos:station:wmo:42887:1,2010-12-02T06:20:00Z,28.1910,-88.4960,16.6,11111222 
ADCP,ioos:station:wmo:42887:1,2010-12-02T06:40:00Z,28.1910,-88.4960,16.4,11111222 
ADCP,ioos:station:wmo:42887:1,2010-12-02T07:00:00Z,28.1910,-88.4960,16.5,11111222 
ADCP,ioos:station:wmo:42887:1,2010-12-02T07:20:00Z,28.1910,-88.4960,16.8,11111222 
ADCP,ioos:station:wmo:42887:1,2010-12-02T07:40:00Z,28.1910,-88.4960,16.7,11111222 
ADCP,ioos:station:wmo:42887:1,2010-12-02T08:00:00Z,28.1910,-88.4960,17.1,11111222 
ADCP,ioos:station:wmo:42887:1,2010-12-02T08:20:00Z,28.1910,-88.4960,17.0,11111222 
ADCP,ioos:station:wmo:42887:1,2010-12-02T08:40:00Z,28.1910,-88.4960,17.0,11111222 
ADCP,ioos:station:wmo:42887:1,2010-12-02T09:00:00Z,28.1910,-88.4960,17.2,11111222 
ADCP,ioos:station:wmo:42887:1,2010-12-02T09:20:00Z,28.1910,-88.4960,17.0,11111222 
ADCP,ioos:station:wmo:42887:1,2010-12-02T09:40:00Z,28.1910,-88.4960,16.7,11111222 
ADCP,ioos:station:wmo:42887:1,2010-12-02T10:00:00Z,28.1910,-88.4960,17.0,11111222 
ADCP,ioos:station:wmo:42887:1,2010-12-02T10:20:00Z,28.1910,-88.4960,16.7,11111222 
ADCP,ioos:station:wmo:42887:1,2010-12-02T10:40:00Z,28.1910,-88.4960,16.8,11111222 
ADCP,ioos:station:wmo:42887:1,2010-12-02T11:00:00Z,28.1910,-88.4960,17.0,11111222 
ADCP,ioos:station:wmo:42887:1,2010-12-02T11:20:00Z,28.1910,-88.4960,17.0,11111222 
ADCP,ioos:station:wmo:42887:1,2010-12-02T11:40:00Z,28.1910,-88.4960,17.1,11111222 
ADCP,ioos:station:wmo:42887:1,2010-12-02T12:00:00Z,28.1910,-88.4960,18.3,11111222 
ADCP,ioos:station:wmo:42887:1,2010-12-02T12:20:00Z,28.1910,-88.4960,18.9,11111222 
ADCP,ioos:station:wmo:42887:1,2010-12-02T12:40:00Z,28.1910,-88.4960,18.8,11111222 
ADCP,ioos:station:wmo:42887:1,2010-12-02T13:00:00Z,28.1910,-88.4960,18.8,11111222 
ADCP,ioos:station:wmo:42887:1,2010-12-02T13:20:00Z,28.1910,-88.4960,19.1,11111222 
ADCP,ioos:station:wmo:42887:1,2010-12-02T13:40:00Z,28.1910,-88.4960,19.1,11111222 
ADCP,ioos:station:wmo:42887:1,2010-12-02T14:00:00Z,28.1910,-88.4960,19.6,11111222 
ADCP,ioos:station:wmo:42887:1,2010-12-02T14:20:00Z,28.1910,-88.4960,19.4,11111222 
ADCP,ioos:station:wmo:42887:1,2010-12-02T14:40:00Z,28.1910,-88.4960,19.4,11111222 
ADCP,ioos:station:wmo:42887:1,2010-12-02T15:00:00Z,28.1910,-88.4960,19.2,11111222 
ADCP,ioos:station:wmo:42887:1,2010-12-02T15:20:00Z,28.1910,-88.4960,18.8,11111222 
ADCP,ioos:station:wmo:42887:1,2010-12-02T15:40:00Z,28.1910,-88.4960,19.1,11111222 
ADCP,ioos:station:wmo:42887:1,2010-12-02T16:00:00Z,28.1910,-88.4960,18.8,11111222 
ADCP,ioos:station:wmo:42887:1,2010-12-02T16:20:00Z,28.1910,-88.4960,18.2,11111222 
ADCP,ioos:station:wmo:42887:1,2010-12-02T16:40:00Z,28.1910,-88.4960,18.6,11111222 
ADCP,ioos:station:wmo:42887:1,2010-12-02T17:00:00Z,28.1910,-88.4960,18.5,11111222 
ADCP,ioos:station:wmo:42887:1,2010-12-02T17:20:00Z,28.1910,-88.4960,19.3,11111222 
ADCP,ioos:station:wmo:42887:1,2010-12-02T17:40:00Z,28.1910,-88.4960,19.1,11111222 
ADCP,ioos:station:wmo:42887:1,2010-12-02T18:00:00Z,28.1910,-88.4960,18.4,11111222 
ADCP,ioos:station:wmo:42887:1,2010-12-02T18:20:00Z,28.1910,-88.4960,18.7,11111222 
ADCP,ioos:station:wmo:42887:1,2010-12-02T18:40:00Z,28.1910,-88.4960,18.6,11111222 
ADCP,ioos:station:wmo:42887:1,2010-12-02T19:00:00Z,28.1910,-88.4960,18.9,11111222 
ADCP,ioos:station:wmo:42887:1,2010-12-02T19:20:00Z,28.1910,-88.4960,19.0,11111222 
ADCP,ioos:station:wmo:42887:1,2010-12-02T19:40:00Z,28.1910,-88.4960,18.8,11111222 
ADCP,ioos:station:wmo:42887:1,2010-12-02T20:00:00Z,28.1910,-88.4960,18.9,11111222 
ADCP,ioos:station:wmo:42887:1,2010-12-02T20:20:00Z,28.1910,-88.4960,19.1,11111222 
ADCP,ioos:station:wmo:42887:1,2010-12-02T20:40:00Z,28.1910,-88.4960,18.9,11111222 
ADCP,ioos:station:wmo:42887:1,2010-12-02T21:00:00Z,28.1910,-88.4960,18.5,11111222 
ADCP,ioos:station:wmo:42887:1,2010-12-02T21:20:00Z,28.1910,-88.4960,18.6,11111222 
ADCP,ioos:station:wmo:42887:1,2010-12-02T21:40:00Z,28.1910,-88.4960,18.0,11111222 
ADCP,ioos:station:wmo:42887:1,2010-12-02T22:00:00Z,28.1910,-88.4960,18.2,11111222 
ADCP,ioos:station:wmo:42887:1,2010-12-02T22:20:00Z,28.1910,-88.4960,18.2,11111222 
ADCP,ioos:station:wmo:42887:1,2010-12-02T22:40:00Z,28.1910,-88.4960,18.2,11111222 
ADCP,ioos:station:wmo:42887:1,2010-12-02T23:20:00Z,28.1910,-88.4960,18.3,11111222 
ADCP,ioos:station:wmo:42887:1,2010-12-02T23:40:00Z,28.1910,-88.4960,18.4,11111222 
ADCP,ioos:station:wmo:42887:1,2010-12-03T00:00:00Z,28.1910,-88.4960,18.2,11111222 
ADCP,ioos:station:wmo:42887:1,2010-12-03T00:20:00Z,28.1910,-88.4960,18.3,11111222 
ADCP,ioos:station:wmo:42887:1,2010-12-03T00:40:00Z,28.1910,-88.4960,18.3,11111222 
ADCP,ioos:station:wmo:42887:1,2010-12-03T01:00:00Z,28.1910,-88.4960,18.3,11111222 
ADCP,ioos:station:wmo:42887:1,2010-12-03T01:20:00Z,28.1910,-88.4960,18.5,11111222 
ADCP,ioos:station:wmo:42887:1,2010-12-03T01:40:00Z,28.1910,-88.4960,18.6,11111222 
ADCP,ioos:station:wmo:42887:1,2010-12-03T02:00:00Z,28.1910,-88.4960,18.6,11111222 
ADCP,ioos:station:wmo:42887:1,2010-12-03T02:20:00Z,28.1910,-88.4960,18.4,11111222 
ADCP,ioos:station:wmo:42887:1,2010-12-03T02:40:00Z,28.1910,-88.4960,18.5,11111222 
ADCP,ioos:station:wmo:42887:1,2010-12-03T03:00:00Z,28.1910,-88.4960,18.8,11111222 
ADCP,ioos:station:wmo:42887:1,2010-12-03T03:20:00Z,28.1910,-88.4960,18.8,11111222 
ADCP,ioos:station:wmo:42887:1,2010-12-03T03:40:00Z,28.1910,-88.4960,19.0,11111222 
ADCP,ioos:station:wmo:42887:1,2010-12-03T04:00:00Z,28.1910,-88.4960,18.9,11111222 
ADCP,ioos:station:wmo:42887:1,2010-12-03T04:20:00Z,28.1910,-88.4960,19.0,11111222 
ADCP,ioos:station:wmo:42887:1,2010-12-03T04:40:00Z,28.1910,-88.4960,18.8,11111222 
ADCP,ioos:station:wmo:42887:1,2010-12-03T05:00:00Z,28.1910,-88.4960,18.6,11111222 
ADCP,ioos:station:wmo:42887:1,2010-12-03T05:20:00Z,28.1910,-88.4960,18.8,11111222 
ADCP,ioos:station:wmo:42887:1,2010-12-03T05:40:00Z,28.1910,-88.4960,18.9,11111222 
ADCP,ioos:station:wmo:42887:1,2010-12-03T06:00:00Z,28.1910,-88.4960,18.6,11111222 
ADCP,ioos:station:wmo:42887:1,2010-12-03T06:20:00Z,28.1910,-88.4960,18.9,11111222 
ADCP,ioos:station:wmo:42887:1,2010-12-03T06:40:00Z,28.1910,-88.4960,18.8,11111222 
ADCP,ioos:station:wmo:42887:1,2010-12-03T07:00:00Z,28.1910,-88.4960,18.8,11111222 
ADCP,ioos:station:wmo:42887:1,2010-12-03T07:20:00Z,28.1910,-88.4960,18.7,11111222 
ADCP,ioos:station:wmo:42887:1,2010-12-03T07:40:00Z,28.1910,-88.4960,18.9,11111222 
ADCP,ioos:station:wmo:42887:1,2010-12-03T08:00:00Z,28.1910,-88.4960,18.8,11111222 
ADCP,ioos:station:wmo:42887:1,2010-12-03T08:20:00Z,28.1910,-88.4960,18.5,11111222 
ADCP,ioos:station:wmo:42887:1,2010-12-03T08:40:00Z,28.1910,-88.4960,18.8,11111222 
ADCP,ioos:station:wmo:42887:1,2010-12-03T09:00:00Z,28.1910,-88.4960,18.3,11111222 
ADCP,ioos:station:wmo:42887:1,2010-12-03T09:20:00Z,28.1910,-88.4960,18.7,11111222 
ADCP,ioos:station:wmo:42887:1,2010-12-03T09:40:00Z,28.1910,-88.4960,18.7,11111222 
ADCP,ioos:station:wmo:42887:1,2010-12-03T10:00:00Z,28.1910,-88.4960,19.3,11111222 
ADCP,ioos:station:wmo:42887:1,2010-12-03T10:40:00Z,28.1910,-88.4960,18.8,11111222 
ADCP,ioos:station:wmo:42887:1,2010-12-03T11:00:00Z,28.1910,-88.4960,18.7,11111222 
ADCP,ioos:station:wmo:42887:1,2010-12-03T11:20:00Z,28.1910,-88.4960,19.2,11111222 
ADCP,ioos:station:wmo:42887:1,2010-12-03T11:40:00Z,28.1910,-88.4960,19.2,11111222 
ADCP,ioos:station:wmo:42887:1,2010-12-03T12:00:00Z,28.1910,-88.4960,19.8,11111222 
ADCP,ioos:station:wmo:42887:1,2010-12-03T12:20:00Z,28.1910,-88.4960,19.9,11111222 
ADCP,ioos:station:wmo:42887:1,2010-12-03T12:40:00Z,28.1910,-88.4960,19.5,11111222 
ADCP,ioos:station:wmo:42887:1,2010-12-03T13:00:00Z,28.1910,-88.4960,21.1,11111222 
ADCP,ioos:station:wmo:42887:1,2010-12-03T13:20:00Z,28.1910,-88.4960,20.9,11111222 
ADCP,ioos:station:wmo:42887:1,2010-12-03T13:40:00Z,28.1910,-88.4960,21.8,11111222 
ADCP,ioos:station:wmo:42887:1,2010-12-03T14:00:00Z,28.1910,-88.4960,20.9,11111222 
ADCP,ioos:station:wmo:42887:1,2010-12-03T14:20:00Z,28.1910,-88.4960,19.9,11111222 
ADCP,ioos:station:wmo:42887:1,2010-12-03T14:40:00Z,28.1910,-88.4960,20.3,11111222 
ADCP,ioos:station:wmo:42887:1,2010-12-03T15:00:00Z,28.1910,-88.4960,21.2,11111222 
ADCP,ioos:station:wmo:42887:1,2010-12-03T15:20:00Z,28.1910,-88.4960,21.9,11111222 
ADCP,ioos:station:wmo:42887:1,2010-12-03T15:40:00Z,28.1910,-88.4960,21.3,11111222 
ADCP,ioos:station:wmo:42887:1,2010-12-03T16:00:00Z,28.1910,-88.4960,21.5,11111222 
ADCP,ioos:station:wmo:42887:1,2010-12-03T16:20:00Z,28.1910,-88.4960,21.0,11111222 
ADCP,ioos:station:wmo:42887:1,2010-12-03T16:40:00Z,28.1910,-88.4960,21.0,11111222 
ADCP,ioos:station:wmo:42887:1,2010-12-03T17:00:00Z,28.1910,-88.4960,21.2,11111222 
ADCP,ioos:station:wmo:42887:1,2010-12-03T17:20:00Z,28.1910,-88.4960,21.9,11111222 
ADCP,ioos:station:wmo:42887:1,2010-12-03T17:40:00Z,28.1910,-88.4960,21.2,11111222 
ADCP,ioos:station:wmo:42887:1,2010-12-03T18:00:00Z,28.1910,-88.4960,20.8,11111222 
ADCP,ioos:station:wmo:42887:1,2010-12-03T18:20:00Z,28.1910,-88.4960,21.2,11111222 
ADCP,ioos:station:wmo:42887:1,2010-12-03T18:40:00Z,28.1910,-88.4960,20.9,11111222 
ADCP,ioos:station:wmo:42887:1,2010-12-03T19:00:00Z,28.1910,-88.4960,20.7,11111222 
ADCP,ioos:station:wmo:42887:1,2010-12-03T19:20:00Z,28.1910,-88.4960,20.8,11111222 
ADCP,ioos:station:wmo:42887:1,2010-12-03T19:40:00Z,28.1910,-88.4960,20.6,11111222 
ADCP,ioos:station:wmo:42887:1,2010-12-03T20:00:00Z,28.1910,-88.4960,20.6,11111222 
ADCP,ioos:station:wmo:42887:1,2010-12-03T20:20:00Z,28.1910,-88.4960,21.3,11111222 
ADCP,ioos:station:wmo:42887:1,2010-12-03T20:40:00Z,28.1910,-88.4960,20.3,11111222 
ADCP,ioos:station:wmo:42887:1,2010-12-03T21:00:00Z,28.1910,-88.4960,20.1,11111222 
ADCP,ioos:station:wmo:42887:1,2010-12-03T21:20:00Z,28.1910,-88.4960,20.0,11111222 
ADCP,ioos:station:wmo:42887:1,2010-12-03T21:40:00Z,28.1910,-88.4960,20.1,11111222 
ADCP,ioos:station:wmo:42887:1,2010-12-03T22:00:00Z,28.1910,-88.4960,19.4,11111222 
ADCP,ioos:station:wmo:42887:1,2010-12-03T22:20:00Z,28.1910,-88.4960,19.1,11111222 
ADCP,ioos:station:wmo:42887:1,2010-12-03T23:00:00Z,28.1910,-88.4960,19.1,11111222 
ADCP,ioos:station:wmo:42887:1,2010-12-03T23:20:00Z,28.1910,-88.4960,19.6,11111222 
ADCP,ioos:station:wmo:42887:1,2010-12-03T23:40:00Z,28.1910,-88.4960,19.7,11111222 
ADCP,ioos:station:wmo:42887:1,2010-12-04T00:00:00Z,28.1910,-88.4960,18.9,11111222 
ADCP,ioos:station:wmo:42887:1,2010-12-04T00:20:00Z,28.1910,-88.4960,19.2,11111222 
ADCP,ioos:station:wmo:42887:1,2010-12-04T00:40:00Z,28.1910,-88.4960,19.3,11111222 
ADCP,ioos:station:wmo:42887:1,2010-12-04T01:00:00Z,28.1910,-88.4960,19.1,11111222 
ADCP,ioos:station:wmo:42887:1,2010-12-04T01:20:00Z,28.1910,-88.4960,19.1,11111222 
ADCP,ioos:station:wmo:42887:1,2010-12-04T01:40:00Z,28.1910,-88.4960,19.3,11111222 
ADCP,ioos:station:wmo:42887:1,2010-12-04T02:00:00Z,28.1910,-88.4960,19.3,11111222 
ADCP,ioos:station:wmo:42887:1,2010-12-04T02:20:00Z,28.1910,-88.4960,19.3,11111222 
ADCP,ioos:station:wmo:42887:1,2010-12-04T02:40:00Z,28.1910,-88.4960,18.9,11111222 
ADCP,ioos:station:wmo:42887:1,2010-12-04T03:00:00Z,28.1910,-88.4960,19.1,11111222 
ADCP,ioos:station:wmo:42887:1,2010-12-04T03:20:00Z,28.1910,-88.4960,19.2,11111222 
ADCP,ioos:station:wmo:42887:1,2010-12-04T04:00:00Z,28.1910,-88.4960,19.3,11111222 
ADCP,ioos:station:wmo:42887:1,2010-12-04T04:20:00Z,28.1910,-88.4960,18.9,11111222 
ADCP,ioos:station:wmo:42887:1,2010-12-04T04:40:00Z,28.1910,-88.4960,19.3,11111222 
ADCP,ioos:station:wmo:42887:1,2010-12-04T05:00:00Z,28.1910,-88.4960,19.3,11111222 
ADCP,ioos:station:wmo:42887:1,2010-12-04T05:20:00Z,28.1910,-88.4960,19.4,11111222 
ADCP,ioos:station:wmo:42887:1,2010-12-04T05:40:00Z,28.1910,-88.4960,19.2,11111222 
ADCP,ioos:station:wmo:42887:1,2010-12-04T06:00:00Z,28.1910,-88.4960,19.2,11111222 
ADCP,ioos:station:wmo:42887:1,2010-12-04T06:20:00Z,28.1910,-88.4960,19.2,11111222 
ADCP,ioos:station:wmo:42887:1,2010-12-04T06:40:00Z,28.1910,-88.4960,19.4,11111222 
ADCP,ioos:station:wmo:42887:1,2010-12-04T07:00:00Z,28.1910,-88.4960,19.4,11111222 
ADCP,ioos:station:wmo:42887:1,2010-12-04T07:20:00Z,28.1910,-88.4960,19.3,11111222 
ADCP,ioos:station:wmo:42887:1,2010-12-04T07:40:00Z,28.1910,-88.4960,19.3,11111222 
ADCP,ioos:station:wmo:42887:1,2010-12-04T08:00:00Z,28.1910,-88.4960,19.7,11111222 
ADCP,ioos:station:wmo:42887:1,2010-12-04T08:20:00Z,28.1910,-88.4960,19.7,11111222 
ADCP,ioos:station:wmo:42887:1,2010-12-04T08:40:00Z,28.1910,-88.4960,19.6,11111222 
ADCP,ioos:station:wmo:42887:1,2010-12-04T09:00:00Z,28.1910,-88.4960,19.5,11111222 
ADCP,ioos:station:wmo:42887:1,2010-12-04T09:20:00Z,28.1910,-88.4960,19.6,11111222 
ADCP,ioos:station:wmo:42887:1,2010-12-04T09:40:00Z,28.1910,-88.4960,19.8,11111222 
ADCP,ioos:station:wmo:42887:1,2010-12-04T10:00:00Z,28.1910,-88.4960,19.7,11111222 
ADCP,ioos:station:wmo:42887:1,2010-12-04T10:20:00Z,28.1910,-88.4960,19.8,11111222 
ADCP,ioos:station:wmo:42887:1,2010-12-04T10:40:00Z,28.1910,-88.4960,20.2,11111222 
ADCP,ioos:station:wmo:42887:1,2010-12-04T11:00:00Z,28.1910,-88.4960,20.0,11111222 
ADCP,ioos:station:wmo:42887:1,2010-12-04T11:20:00Z,28.1910,-88.4960,19.6,11111222 
ADCP,ioos:station:wmo:42887:1,2010-12-04T11:40:00Z,28.1910,-88.4960,20.2,11111222 
ADCP,ioos:station:wmo:42887:1,2010-12-04T12:00:00Z,28.1910,-88.4960,20.2,11111222 
ADCP,ioos:station:wmo:42887:1,2010-12-04T12:20:00Z,28.1910,-88.4960,20.6,11111222 
ADCP,ioos:station:wmo:42887:1,2010-12-04T12:40:00Z,28.1910,-88.4960,20.6,11111222 
ADCP,ioos:station:wmo:42887:1,2010-12-04T13:00:00Z,28.1910,-88.4960,20.7,11111222 
ADCP,ioos:station:wmo:42887:1,2010-12-04T13:20:00Z,28.1910,-88.4960,21.4,11111222 
ADCP,ioos:station:wmo:42887:1,2010-12-04T13:40:00Z,28.1910,-88.4960,21.8,11111222 
ADCP,ioos:station:wmo:42887:1,2010-12-04T14:00:00Z,28.1910,-88.4960,21.5,11111222 
ADCP,ioos:station:wmo:42887:1,2010-12-04T14:20:00Z,28.1910,-88.4960,21.5,11111222 
ADCP,ioos:station:wmo:42887:1,2010-12-04T14:40:00Z,28.1910,-88.4960,21.6,11111222 
ADCP,ioos:station:wmo:42887:1,2010-12-04T15:00:00Z,28.1910,-88.4960,21.7,11111222 
ADCP,ioos:station:wmo:42887:1,2010-12-04T15:20:00Z,28.1910,-88.4960,21.7,11111222 
ADCP,ioos:station:wmo:42887:1,2010-12-04T15:40:00Z,28.1910,-88.4960,21.8,11111222 
ADCP,ioos:station:wmo:42887:1,2010-12-04T16:00:00Z,28.1910,-88.4960,22.4,11111222 
ADCP,ioos:station:wmo:42887:1,2010-12-04T16:20:00Z,28.1910,-88.4960,22.5,11111222 
ADCP,ioos:station:wmo:42887:1,2010-12-04T16:40:00Z,28.1910,-88.4960,22.3,11111222 
ADCP,ioos:station:wmo:42887:1,2010-12-04T17:00:00Z,28.1910,-88.4960,22.7,11111222 
ADCP,ioos:station:wmo:42887:1,2010-12-04T17:20:00Z,28.1910,-88.4960,22.8,11111222 
ADCP,ioos:station:wmo:42887:1,2010-12-04T17:40:00Z,28.1910,-88.4960,22.2,11111222 
ADCP,ioos:station:wmo:42887:1,2010-12-04T18:00:00Z,28.1910,-88.4960,22.2,11111222 
ADCP,ioos:station:wmo:42887:1,2010-12-04T18:20:00Z,28.1910,-88.4960,22.7,11111222 
ADCP,ioos:station:wmo:42887:1,2010-12-04T18:40:00Z,28.1910,-88.4960,22.0,11111222 
ADCP,ioos:station:wmo:42887:1,2010-12-04T19:00:00Z,28.1910,-88.4960,22.3,11111222 
ADCP,ioos:station:wmo:42887:1,2010-12-04T19:20:00Z,28.1910,-88.4960,22.0,11111222 
ADCP,ioos:station:wmo:42887:1,2010-12-04T19:40:00Z,28.1910,-88.4960,22.3,11111222 
ADCP,ioos:station:wmo:42887:1,2010-12-04T20:00:00Z,28.1910,-88.4960,22.1,11111222 
ADCP,ioos:station:wmo:42887:1,2010-12-04T20:20:00Z,28.1910,-88.4960,22.3,11111222 
ADCP,ioos:station:wmo:42887:1,2010-12-04T20:40:00Z,28.1910,-88.4960,22.7,11111222 
ADCP,ioos:station:wmo:42887:1,2010-12-04T21:00:00Z,28.1910,-88.4960,22.9,11111222 
ADCP,ioos:station:wmo:42887:1,2010-12-04T21:20:00Z,28.1910,-88.4960,22.7,11111222 
ADCP,ioos:station:wmo:42887:1,2010-12-04T21:40:00Z,28.1910,-88.4960,22.4,11111222 
ADCP,ioos:station:wmo:42887:1,2010-12-04T22:00:00Z,28.1910,-88.4960,22.8,11111222 
ADCP,ioos:station:wmo:42887:1,2010-12-04T22:20:00Z,28.1910,-88.4960,23.0,11111222 
ADCP,ioos:station:wmo:42887:1,2010-12-04T23:00:00Z,28.1910,-88.4960,22.9,11111222 
ADCP,ioos:station:wmo:42887:1,2010-12-04T23:20:00Z,28.1910,-88.4960,22.8,11111222 
ADCP,ioos:station:wmo:42887:1,2010-12-04T23:40:00Z,28.1910,-88.4960,22.7,11111222 
ADCP,ioos:station:wmo:42887:1,2010-12-05T00:00:00Z,28.1910,-88.4960,22.9,11111222 
ADCP,ioos:station:wmo:42887:1,2010-12-05T00:20:00Z,28.1910,-88.4960,22.7,11111222 
ADCP,ioos:station:wmo:42887:1,2010-12-05T00:40:00Z,28.1910,-88.4960,22.6,11111222 
ADCP,ioos:station:wmo:42887:1,2010-12-05T01:00:00Z,28.1910,-88.4960,22.8,11111222 
ADCP,ioos:station:wmo:42887:1,2010-12-05T01:20:00Z,28.1910,-88.4960,22.7,11111222 
ADCP,ioos:station:wmo:42887:1,2010-12-05T01:40:00Z,28.1910,-88.4960,22.8,11111222 
ADCP,ioos:station:wmo:42887:1,2010-12-05T02:00:00Z,28.1910,-88.4960,22.9,11111222 